Location: Camden Lake
(44.4269°N, 76.8469°W)
Time: 13:52:16
(UTC-04:00)

Daily predictions for brighter satellites

Satellite Brightness Start Highest point End
(mag) Time Altitude Azimuth Time Altitude Azimuth Time Altitude Azimuth
Cosmos 2297 Rocket 3.8 20:23:25 10° NW 20:28:32 36° WSW 20:33:38 10° S
Nadezhda 4 Rocket 4.0 20:22:36 10° N 20:28:53 81° E 20:35:11 10° S
Cosmos 1892 2.7 20:29:08 10° N 20:32:56 89° E 20:36:44 10° S
ALOS 3.5 20:28:38 10° S 20:33:07 46° W 20:37:38 10° NNW
Cosmos 1092 Rocket 4.1 20:31:14 10° N 20:37:34 68° E 20:43:53 10° SSE
Cosmos 1634 Rocket 4.3 20:31:41 10° SSE 20:37:39 47° E 20:43:40 10° NNE
Cosmos 2263 Rocket 3.4 20:33:05 10° N 20:37:43 26° NE 20:42:21 10° ESE
Meteor 2-3 Rocket 4.1 20:32:26 10° NNW 20:38:07 73° W 20:43:50 10° S
Cosmos 1315 Rocket 2.9 20:34:32 10° N 20:38:37 61° ENE 20:42:37 10° SSE
Intercosmos 25 Rocket 4.5 20:36:46 10° SE 20:39:12 20° E 20:42:03 10° NE
H-2A R/B 3.7 20:38:08 10° S 20:41:56 51° W 20:45:44 10° NNW
Cosmos 2322 Rocket 3.0 20:38:28 10° SSE 20:43:09 28° ESE 20:47:52 10° NE
USA 186 1.3 20:41:12 10° SSE 20:43:51 81° ENE 20:46:44 10° N
Cosmos 1707 Rocket 3.6 20:43:32 10° S 20:47:57 68° E 20:52:22 10° NNE
Abrixas rocket 2.3 20:45:08 10° SW 20:48:21 53° SSE 20:51:34 10° ENE
YAOGAN 6 4.0 20:45:47 10° ESE 20:48:36 22° ENE 20:51:28 10° NNE
Spot 2 Rocket 4.0 20:44:09 10° S 20:49:13 65° WSW 20:54:18 10° NNW
USA 267 3.9 20:43:39 10° NE 20:50:04 60° NNW 20:56:28 10° WSW
Cosmos 1733 Rocket 4.0 20:49:44 10° N 20:53:44 31° ENE 20:57:20 12° SE
Cosmos 2360 Rocket 3.8 20:52:40 11° ESE 20:54:40 13° E 20:57:17 10° ENE
Cosmos 1980 Rocket 2.3 20:49:08 10° SSW 20:54:49 87° WNW 21:00:34 10° NNE
Helios 1B rocket 2.4 20:53:51 10° NNE 20:57:56 60° ESE 21:01:58 10° S
Lacrosse 4 Rocket 1.9 20:55:43 10° NNW 20:59:52 47° NE 21:03:17 15° SE
Meteor 1-29 3.2 20:56:30 10° NNE 20:59:54 47° E 21:03:15 10° S
CZ-2D R/B 4.3 20:56:33 10° S 21:00:19 46° W 21:04:06 10° NNW
Cosmos 1869 Rocket 4.2 20:59:33 10° NNW 21:03:58 59° W 21:08:22 10° S
Cosmos 1825 2.4 21:01:24 10° N 21:05:09 52° E 21:08:25 13° SSE
Cosmos 1862 4.0 21:01:49 10° N 21:05:35 37° ENE 21:08:23 16° SE
Envisat 3.0 21:03:57 10° SSE 21:09:01 85° ENE 21:14:08 10° NNW
SL-16 R/B 2.5 21:04:32 10° S 21:09:54 45° ESE 21:15:18 10° NE
Cosmos 1302 Rocket 4.1 21:04:44 10° SSW 21:09:56 80° WNW 21:15:10 10° NNE
Cosmos 1627 Rocket 4.5 21:04:38 10° N 21:10:54 80° E 21:17:03 10° S
Milstar 3 4.2 21:07:47 10° WSW 21:13:30 22° S 21:17:22 14° SSE
Cosmos 1939 Rocket 2.8 21:09:45 10° SSE 21:13:49 79° ENE 21:17:51 10° N
Cosmos 2242 Rocket 3.6 21:09:50 10° S 21:14:17 63° E 21:18:45 10° NNE
SJ-11-01 4.2 21:11:24 10° SSE 21:16:04 87° E 21:20:46 10° NNW
Cosmos 2195 Rocket 4.5 21:10:13 10° N 21:16:22 89° ENE 21:22:30 10° S
SPOT 5 4.0 21:15:35 17° ESE 21:18:13 28° ENE 21:22:11 10° N
CZ-4B DEB 2.9 21:15:55 11° S 21:18:49 67° W 21:21:51 10° NNW
ATLAS 5 CENTAUR R/B 3.2 21:14:28 10° NNW 21:19:58 40° NE 21:24:21 17° ESE
Cosmos 2279 Rocket 4.0 21:14:00 10° S 21:20:06 59° E 21:26:13 10° NNE
USA 234 3.6 21:20:01 15° SE 21:25:34 63° SW 21:32:05 10° NW
OAO 3 Rocket 4.4 21:23:36 10° SW 21:27:41 26° S 21:29:18 22° SE
Resurs 01 Rocket 4.1 21:26:56 10° SW 21:30:20 21° W 21:33:45 10° NW
Helios 1A 4.2 21:28:13 10° S 21:32:13 41° W 21:36:16 10° NNW
Atlas Centaur 2 4.1 21:27:13 10° SSW 21:32:31 21° SSE 21:34:14 19° SE
ARGOS 3.8 21:30:20 22° ESE 21:33:11 39° ENE 21:38:08 10° N
Cosmos 1428 Rocket 4.4 21:30:00 10° N 21:36:09 78° E 21:41:11 16° SSE
Molniya-1 4.3 21:36:34 10° WSW 21:38:19 36° NW 21:40:43 10° NNE
MOS 1-B Rocket 4.4 21:35:42 23° SE 21:38:59 42° ENE 21:44:17 10° N
Cosmos 2180 Rocket 4.5 21:33:39 10° S 21:39:59 70° E 21:46:18 10° NNE
Cosmos 1844 Rocket 4.3 21:37:19 10° N 21:41:25 20° NE 21:44:04 15° E
ERS-1 Rocket 2.9 21:42:12 20° SSE 21:45:41 90° WSW 21:50:45 10° NNW
Cosmos 1408 3.7 21:43:37 10° NNW 21:47:10 42° W 21:50:07 13° SSW
ERBS 3.7 21:48:37 10° WNW 21:51:44 31° SW 21:52:43 26° SSW
Sich 1 Rocket 3.7 21:48:04 10° N 21:52:29 57° E 21:53:57 38° SE
Meteor 1-14 Rocket 4.5 21:51:51 10° N 21:57:22 53° ENE 21:59:37 33° SE
SeaSat 1 2.4 22:00:11 37° SE 22:02:11 79° ENE 22:07:09 10° NNW
Cosmos 1992 Rocket 4.0 21:58:34 10° SSW 22:03:48 82° WNW 22:09:05 10° NNE
USA 229 DEB 4.1 22:04:46 29° SSE 22:07:21 39° ESE 22:13:39 10° NE
USA 229 4.1 22:05:03 30° SSE 22:07:27 38° ESE 22:13:44 10° NE
H-2A R/B 3.2 22:07:13 27° ENE 22:07:28 27° ENE 22:11:07 10° N
Cosmos 1908 Rocket 3.4 22:05:32 10° N 22:09:53 87° ENE 22:11:04 48° S
MetOp-A 4.2 22:08:20 29° S 22:11:07 77° WSW 22:16:31 10° NNW
USA 245 4.2 22:08:35 33° SSE 22:11:24 82° ENE 22:16:38 10° N
Landsat 7 4.4 22:11:17 37° E 22:12:02 39° ENE 22:16:28 10° N
Meteor 1-25 Rocket 4.3 22:11:27 10° N 22:16:58 56° ENE 22:18:23 44° SE
Cosmos 1933 4.4 22:14:41 15° SSW 22:17:50 44° WNW 22:21:43 10° N
Cosmos 1867 3.5 22:15:43 10° NNW 22:21:12 78° NE 22:22:40 49° SE
Cosmos 2263 Rocket 2.6 22:16:33 10° NW 22:21:58 54° WSW 22:24:22 31° S
COSMOS 2428 3.6 22:23:05 30° E 22:23:05 30° E 22:27:07 10° NE
Cosmos 1782 Rocket 3.4 22:19:26 10° N 22:23:48 72° E 22:24:09 67° ESE
Okean 2 Rocket 3.3 22:19:37 10° N 22:24:04 52° ENE 22:24:13 52° E
H-2A R/B 2.0 22:24:03 53° SE 22:25:03 67° ENE 22:29:59 10° N
Abrixas rocket 3.1 22:22:02 10° W 22:25:12 46° N 22:25:19 46° N
Cosmos 2322 Rocket 3.2 22:21:34 10° SW 22:26:57 46° WNW 22:32:21 10° NNE
Terra 2.4 22:26:53 39° ENE 22:27:10 39° ENE 22:31:36 10° N
IGS 5A 4.3 22:35:11 37° NE 22:35:11 37° NE 22:38:34 10° N
Meteor 2-10 Rocket 4.1 22:30:49 17° SSW 22:35:17 64° WNW 22:41:04 10° N
Cosmos 2360 Rocket 2.1 22:34:16 24° SSW 22:37:48 89° WNW 22:43:31 10° NNE
Lacrosse 4 Rocket 3.5 22:35:10 10° WNW 22:38:16 19° WSW 22:39:39 17° SW
SL-08 RB Rocket 3.9 22:37:52 56° SSW 22:38:39 67° WSW 22:43:14 10° NNW
Meteor 1-20 Rocket 4.1 22:33:37 10° N 22:39:12 76° E 22:40:13 59° SE
Cosmos 1844 4.4 22:35:32 10° NNW 22:40:54 40° ENE 22:41:50 38° E
Cosmos 2322 3.6 22:40:41 35° SSW 22:43:13 87° ESE 22:48:58 10° NNE
Cosmos 968 Rocket 3.9 22:40:13 10° NNW 22:45:18 56° WSW 22:46:23 47° SSW
Geosat 4.0 22:43:26 10° NNE 22:47:59 60° E 22:47:59 60° E
Meteor 1-22 4.5 22:43:30 10° N 22:48:53 89° W 22:49:38 68° S
Meteor 2-6 Rocket 4.5 22:49:28 53° E 22:49:39 53° E 22:55:26 10° NNE
ASTEX 1 3.6 22:50:52 56° ENE 22:50:52 56° ENE 22:55:37 10° N
Cosmos 2266 Rocket 4.5 22:44:55 10° NNW 22:51:02 57° W 22:53:45 33° SSW
Cosmos 1606 4.4 22:53:08 26° NNE 22:53:08 26° NNE 22:54:56 10° NNE
deb Chang Zheng 4 4.4 22:47:27 10° NNE 22:50:34 41° NE 22:50:34 41° NE
SL-16 R/B 4.0 22:49:12 10° WSW 22:54:10 31° NW 22:59:12 10° N
Okean 1-7 3.2 22:55:18 69° W 22:55:18 69° W 22:59:43 10° N
SPOT 5 4.0 22:54:50 30° SW 22:56:09 36° W 23:00:31 10° NNW
CZ-4C R/B 3.8 22:50:07 10° NNW 22:56:31 38° NE 22:59:44 27° E
Cosmos 2151 Rocket 4.2 22:52:53 10° N 22:56:27 48° NE 22:56:27 48° NE
Cosmos 1782 3.8 22:59:16 42° NNE 22:59:16 42° NNE 23:02:00 10° N
Cosmos 2221 Rocket 4.1 23:00:03 53° W 23:00:21 54° WNW 23:04:43 10° N
Cosmos 2333 Rocket 3.6 23:04:54 25° ENE 23:04:54 25° ENE 23:07:51 10° NE
CZ-4B R/B 4.4 22:58:50 10° NNE 23:01:53 34° NE 23:01:53 34° NE
ATLAS 5 CENTAUR R/B 2.9 22:59:05 10° NW 23:04:52 49° WSW 23:05:54 45° SSW
Cosmos 2333 4.3 23:05:37 60° E 23:05:37 60° E 23:10:45 10° NNE
Cosmos 1244 Rocket 4.4 23:05:02 10° N 23:11:17 83° W 23:12:15 65° S
Cosmos 2237 Rocket 3.9 23:14:49 20° ENE 23:14:49 20° ENE 23:17:07 10° NE
SPOT 1/Viking Rocket 4.5 23:11:28 36° WSW 23:12:26 39° W 23:17:19 10° NNW
Cosmos 2278 Rocket 2.9 23:08:40 10° NNW 23:14:01 41° ENE 23:14:18 41° ENE
Cosmos 1633 4.4 23:10:39 10° N 23:12:32 28° N 23:12:32 28° N
CARTOSAT-1 4.2 23:15:41 55° NW 23:15:41 55° NW 23:19:14 10° NNW
Meteor 1-27 Rocket 4.0 23:19:30 56° ENE 23:19:30 56° ENE 23:24:20 10° NNE
SL-19 R/B 4.3 23:13:45 10° NNE 23:19:56 86° WNW 23:20:39 71° SSW
Atlas Centaur 2 4.5 23:14:22 10° SW 23:16:54 19° SW 23:16:54 19° SW
Cosmos 1553 Rocket 3.9 23:23:21 74° ESE 23:23:30 74° E 23:29:45 10° NNE
Cosmos 1844 Rocket 2.7 23:20:21 10° NNW 23:25:44 73° W 23:25:44 73° W
Okean 1 Rocket 4.5 23:22:19 10° N 23:25:05 32° NNE 23:25:05 32° NNE
SL-08 R/B 4.3 23:22:47 10° N 23:28:59 88° E 23:29:11 85° SSE
Cosmos 1898 Rocket 4.3 23:31:33 10° N 23:35:51 43° NE 23:35:51 43° NE
CZ-2C R/B 4.5 23:33:33 10° NE 23:35:56 19° ENE 23:35:56 19° ENE
Meteor 1-11 Rocket 3.7 23:32:57 10° NNW 23:38:03 75° NNW 23:38:03 75° NNW
H-2A R/B 3.8 23:44:20 26° WNW 23:44:20 26° WNW 23:47:10 10° NW
NOSS 0 Rocket 4.4 23:45:06 48° ENE 23:45:06 48° ENE 23:49:44 10° NNE
Cosmos 2219 Rocket 2.5 23:45:20 59° NNE 23:45:20 59° NNE 23:49:53 10° NNE
S3M 4.0 23:51:34 73° W 23:51:41 73° W 23:57:54 10° N
